| time (UTC) | temp F | wind direction | speed MPH | gust MPH | rain 1hr in | rain 24hr in | rain mn in | humidity % | barometer mb |
| 20260510112838 | 49 | 21 | 0.0 | 1.0 | 0.00 | 0.02 | 0.02 | 98 | 1014.1 |
| 20260510112336 | 50 | 28 | 2.0 | 3.0 | 0.00 | 0.02 | 0.02 | 98 | 1014.1 |
| 20260510111831 | 50 | 10 | 0.0 | 0.0 | 0.00 | 0.02 | 0.02 | 98 | 1013.9 |
| 20260510111328 | 50 | 15 | 0.0 | 0.0 | 0.00 | 0.02 | 0.02 | 98 | 1013.6 |
| 20260510110828 | 50 | 341 | 0.0 | 0.0 | 0.00 | 0.02 | 0.02 | 98 | 1013.9 |
| 20260510110326 | 49 | 34 | 0.0 | 0.0 | 0.00 | 0.02 | 0.02 | 98 | 1013.6 |
| 20260510105822 | 49 | 43 | 0.0 | 0.0 | 0.00 | 0.02 | 0.02 | 98 | 1013.6 |
| 20260510105321 | 49 | 5 | 0.0 | 0.0 | 0.00 | 0.02 | 0.02 | 98 | 1013.5 |
| 20260510104818 | 49 | 353 | 0.0 | 0.0 | 0.00 | 0.02 | 0.02 | 98 | 1013.4 |
| 20260510104315 | 49 | 356 | 0.0 | 0.0 | 0.00 | 0.02 | 0.02 | 98 | 1013.4 |
| 20260510103812 | 49 | 15 | 0.0 | 0.0 | 0.00 | 0.02 | 0.02 | 98 | 1013.5 |
| 20260510103309 | 49 | 348 | 0.0 | 0.0 | 0.00 | 0.02 | 0.02 | 98 | 1013.3 |
| 20260510102804 | 49 | 0 | 0.0 | 0.0 | 0.00 | 0.02 | 0.02 | 98 | 1013.3 |
| 20260510102300 | 48 | 108 | 2.0 | 2.0 | 0.00 | 0.02 | 0.02 | 98 | 1013.2 |
| 20260510101757 | 48 | 112 | 0.0 | 0.0 | 0.00 | 0.02 | 0.02 | 98 | 1013.1 |
| 20260510101256 | 48 | 3 | 0.0 | 0.0 | 0.00 | 0.02 | 0.02 | 98 | 1012.9 |
| 20260510100751 | 48 | 89 | 0.0 | 0.0 | 0.00 | 0.02 | 0.02 | 98 | 1013.1 |
| 20260510100249 | 48 | 78 | 0.0 | 0.0 | 0.00 | 0.02 | 0.02 | 98 | 1013.0 |
| 20260510095744 | 48 | 218 | 1.0 | 1.0 | 0.00 | 0.02 | 0.02 | 98 | 1012.9 |
| 20260510095240 | 48 | 225 | 2.0 | 2.0 | 0.00 | 0.02 | 0.02 | 98 | 1013.0 |
| 20260510094738 | 48 | 272 | 0.0 | 0.0 | 0.00 | 0.02 | 0.02 | 98 | 1012.9 |
| 20260510094234 | 47 | 185 | 0.0 | 0.0 | 0.00 | 0.02 | 0.02 | 98 | 1012.7 |
| 20260510093730 | 48 | 297 | 0.0 | 0.0 | 0.00 | 0.02 | 0.02 | 98 | 1012.6 |
| 20260510093228 | 48 | 341 | 0.0 | 2.0 | 0.00 | 0.02 | 0.02 | 98 | 1012.6 |
| 20260510092724 | 48 | 209 | 2.0 | 2.0 | 0.00 | 0.02 | 0.02 | 98 | 1012.6 |
| 20260510092220 | 48 | 306 | 0.0 | 0.0 | 0.00 | 0.02 | 0.02 | 98 | 1012.4 |
| 20260510091716 | 48 | 284 | 0.0 | 0.0 | 0.00 | 0.02 | 0.02 | 98 | 1012.4 |
| 20260510091212 | 48 | 331 | 0.0 | 0.0 | 0.00 | 0.02 | 0.02 | 97 | 1012.4 |
| 20260510090709 | 47 | 327 | 0.0 | 0.0 | 0.00 | 0.02 | 0.02 | 97 | 1012.2 |
| 20260510090206 | 47 | 66 | 1.0 | 1.0 | 0.00 | 0.02 | 0.02 | 97 | 1012.3 |
| 20260510085701 | 47 | 261 | 1.0 | 1.0 | 0.00 | 0.02 | 0.02 | 97 | 1012.3 |
| 20260510085156 | 48 | 18 | 0.0 | 1.0 | 0.00 | 0.02 | 0.02 | 97 | 1012.2 |
| 20260510084652 | 48 | 5 | 0.0 | 0.0 | 0.00 | 0.02 | 0.02 | 97 | 1012.2 |
| 20260510084149 | 48 | 142 | 1.0 | 1.0 | 0.00 | 0.02 | 0.02 | 97 | 1012.1 |
| 20260510083645 | 48 | 353 | 0.0 | 0.0 | 0.00 | 0.02 | 0.02 | 97 | 1012.4 |
| 20260510083142 | 48 | 318 | 0.0 | 0.0 | 0.00 | 0.02 | 0.02 | 97 | 1012.5 |
| 20260510082638 | 48 | 318 | 0.0 | 1.0 | 0.00 | 0.02 | 0.02 | 97 | 1012.2 |
| 20260510082134 | 48 | 169 | 2.0 | 2.0 | 0.00 | 0.02 | 0.02 | 97 | 1011.9 |
| 20260510081629 | 49 | 10 | 0.0 | 2.0 | 0.00 | 0.02 | 0.02 | 97 | 1012.1 |
| 20260510081125 | 49 | 317 | 1.0 | 1.0 | 0.00 | 0.02 | 0.02 | 96 | 1011.9 |
| 20260510080619 | 49 | 143 | 2.0 | 2.0 | 0.00 | 0.02 | 0.02 | 97 | 1011.8 |
| 20260510080116 | 49 | 81 | 1.0 | 1.0 | 0.00 | 0.02 | 0.02 | 96 | 1011.9 |
| 20260510075613 | 49 | 42 | 1.0 | 3.0 | 0.00 | 0.02 | 0.02 | 96 | 1011.9 |
| 20260510075110 | 50 | 60 | 2.0 | 2.0 | 0.00 | 0.02 | 0.02 | 96 | 1011.8 |
| 20260510074602 | 50 | 286 | 2.0 | 2.0 | 0.00 | 0.02 | 0.02 | 96 | 1012.1 |
| 20260510074057 | 50 | 257 | 2.0 | 2.0 | 0.00 | 0.02 | 0.02 | 96 | 1012.3 |
| 20260510073554 | 50 | 82 | 2.0 | 2.0 | 0.00 | 0.02 | 0.02 | 96 | 1012.0 |
| 20260510073051 | 50 | 33 | 2.0 | 3.0 | 0.00 | 0.02 | 0.02 | 96 | 1012.2 |
| 20260510072547 | 50 | 343 | 0.0 | 1.0 | 0.00 | 0.02 | 0.02 | 95 | 1012.2 |
| 20260510072043 | 50 | 46 | 0.0 | 1.0 | 0.00 | 0.02 | 0.02 | 95 | 1012.0 |
| 20260510071539 | 50 | 77 | 0.0 | 5.0 | 0.05 | 0.02 | 0.02 | 95 | 1011.8 |
| 20260510071038 | 51 | 61 | 0.0 | 2.0 | 0.05 | 0.02 | 0.02 | 95 | 1011.7 |
| 20260510070534 | 51 | 359 | 1.0 | 2.0 | 0.00 | 0.01 | 0.01 | 94 | 1012.1 |
| 20260510070031 | 51 | 346 | 1.0 | 2.0 | 0.00 | 0.01 | 0.01 | 94 | 1012.0 |
| 20260510065527 | 51 | 73 | 1.0 | 2.0 | 0.00 | 0.01 | 0.01 | 94 | 1011.5 |
| 20260510065023 | 51 | 225 | 0.0 | 5.0 | 0.00 | 0.01 | 0.01 | 94 | 1011.8 |
| 20260510064520 | 51 | 140 | 3.0 | 5.0 | 0.00 | 0.01 | 0.01 | 95 | 1011.8 |
| 20260510064017 | 51 | 176 | 3.0 | 6.0 | 0.00 | 0.01 | 0.01 | 95 | 1012.0 |
| 20260510063514 | 51 | 172 | 5.0 | 7.0 | 0.00 | 0.01 | 0.01 | 95 | 1012.3 |
| 20260510063011 | 51 | 166 | 3.0 | 5.0 | 0.00 | 0.01 | 0.01 | 96 | 1012.2 |
| 20260510062507 | 51 | 165 | 3.0 | 3.0 | 0.00 | 0.01 | 0.01 | 96 | 1012.3 |
| 20260510062002 | 50 | 161 | 1.0 | 2.0 | 0.00 | 0.01 | 0.01 | 96 | 1012.1 |
| 20260510061459 | 51 | 130 | 2.0 | 3.0 | 0.00 | 0.01 | 0.01 | 96 | 1012.4 |
| 20260510060955 | 50 | 133 | 2.0 | 2.0 | 0.00 | 0.01 | 0.01 | 96 | 1012.7 |
| 20260510060452 | 51 | 138 | 2.0 | 2.0 | 0.00 | 0.01 | 0.01 | 96 | 1012.8 |
| 20260510055948 | 51 | 146 | 2.0 | 2.0 | 0.07 | 0.01 | 0.01 | 97 | 1012.9 |
| 20260510055444 | 50 | 73 | 2.0 | 2.0 | 0.07 | 0.01 | 0.01 | 97 | 1013.1 |
| 20260510054943 | 50 | 346 | 0.0 | 0.0 | 0.00 | 0.00 | 0.00 | 97 | 1013.3 |
| 20260510054437 | 50 | 1 | 0.0 | 1.0 | 0.00 | 0.00 | 0.00 | 97 | 1013.5 |
| 20260510053932 | 50 | 346 | 0.0 | 0.0 | 0.00 | 0.00 | 0.00 | 97 | 1013.4 |
| 20260510053428 | 50 | 332 | 0.0 | 0.0 | 0.00 | 0.00 | 0.00 | 97 | 1013.5 |
| 20260510052925 | 50 | 252 | 1.0 | 1.0 | 0.00 | 0.00 | 0.00 | 97 | 1013.4 |
| 20260510052421 | 50 | 299 | 0.0 | 0.0 | 0.00 | 0.00 | 0.00 | 96 | 1013.2 |
| 20260510051917 | 49 | 310 | 0.0 | 1.0 | 0.00 | 0.00 | 0.00 | 96 | 1013.4 |
| 20260510051414 | 49 | 309 | 1.0 | 3.0 | 0.00 | 0.00 | 0.00 | 96 | 1013.4 |
| 20260510050910 | 49 | 283 | 4.0 | 7.0 | 0.00 | 0.00 | 0.00 | 96 | 1013.3 |
| 20260510050407 | 49 | 281 | 5.0 | 6.0 | 0.00 | 0.00 | 0.00 | 96 | 1013.3 |
| 20260510045904 | 49 | 322 | 0.0 | 0.0 | 0.00 | 0.00 | 0.00 | 95 | 1012.6 |
| 20260510045401 | 49 | 308 | 1.0 | 1.0 | 0.00 | 0.00 | 0.00 | 95 | 1012.7 |
| 20260510044858 | 49 | 326 | 1.0 | 1.0 | 0.00 | 0.00 | 0.00 | 95 | 1012.5 |
| 20260510044355 | 49 | 304 | 2.0 | 2.0 | 0.00 | 0.00 | 0.00 | 94 | 1012.3 |
| 20260510043851 | 50 | 321 | 1.0 | 1.0 | 0.00 | 0.00 | 0.00 | 94 | 1012.3 |
| 20260510043347 | 50 | 288 | 1.0 | 1.0 | 0.00 | 0.00 | 0.00 | 94 | 1012.1 |
| 20260510042845 | 51 | 193 | 1.0 | 1.0 | 0.00 | 0.00 | 0.00 | 94 | 1012.3 |
| 20260510042341 | 51 | 112 | 1.0 | 2.0 | 0.00 | 0.00 | 0.00 | 94 | 1012.1 |
| 20260510041837 | 50 | 148 | 2.0 | 2.0 | 0.00 | 0.00 | 0.00 | 94 | 1012.1 |
| 20260510041335 | 50 | 33 | 0.0 | 1.0 | 0.00 | 0.00 | 0.00 | 94 | 1012.2 |
| 20260510040832 | 51 | 122 | 3.0 | 3.0 | 0.00 | 0.00 | 0.00 | 94 | 1012.0 |
| 20260510040328 | 51 | 116 | 3.0 | 5.0 | 0.00 | 0.00 | 0.00 | 95 | 1011.9 |
| 20260510035824 | 51 | 141 | 3.0 | 3.0 | 0.00 | 0.23 | 0.23 | 95 | 1012.1 |
| 20260510035320 | 50 | 146 | 2.0 | 5.0 | 0.00 | 0.23 | 0.23 | 95 | 1012.0 |
| 20260510034816 | 50 | 167 | 2.0 | 3.0 | 0.00 | 0.23 | 0.23 | 96 | 1012.1 |
| 20260510034314 | 50 | 163 | 2.0 | 2.0 | 0.00 | 0.23 | 0.23 | 97 | 1012.0 |
| 20260510033810 | 50 | 146 | 3.0 | 3.0 | 0.00 | 0.23 | 0.23 | 97 | 1012.2 |
| 20260510033307 | 49 | 135 | 3.0 | 5.0 | 0.00 | 0.23 | 0.23 | 97 | 1012.1 |
| 20260510032804 | 49 | 343 | 0.0 | 0.0 | 0.00 | 0.23 | 0.23 | 97 | 1012.0 |
| 20260510032300 | 50 | 331 | 0.0 | 0.0 | 0.00 | 0.23 | 0.23 | 97 | 1012.1 |
| 20260510031756 | 50 | 204 | 1.0 | 3.0 | 0.00 | 0.23 | 0.23 | 98 | 1012.0 |
| 20260510031252 | 50 | 147 | 1.0 | 3.0 | 0.00 | 0.23 | 0.23 | 98 | 1011.8 |
| 20260510030750 | 50 | 136 | 2.0 | 5.0 | 0.00 | 0.23 | 0.23 | 98 | 1012.0 |
| 20260510030243 | 50 | 159 | 2.0 | 3.0 | 0.00 | 0.23 | 0.23 | 98 | 1011.8 |
| 20260510025740 | 49 | 159 | 1.0 | 2.0 | 0.00 | 0.23 | 0.23 | 98 | 1011.9 |
| 20260510025238 | 50 | 117 | 3.0 | 5.0 | 0.00 | 0.23 | 0.23 | 98 | 1011.6 |
| 20260510024734 | 49 | 114 | 0.0 | 0.0 | 0.00 | 0.23 | 0.23 | 98 | 1011.6 |
| 20260510024230 | 49 | 69 | 0.0 | 0.0 | 0.00 | 0.23 | 0.23 | 98 | 1011.9 |
| 20260510023726 | 49 | 265 | 0.0 | 0.0 | 0.00 | 0.23 | 0.23 | 98 | 1011.6 |
| 20260510023223 | 49 | 348 | 0.0 | 0.0 | 0.00 | 0.23 | 0.23 | 98 | 1011.8 |
| 20260510022719 | 49 | 27 | 0.0 | 0.0 | 0.00 | 0.23 | 0.23 | 98 | 1012.1 |
| 20260510022214 | 49 | 350 | 0.0 | 0.0 | 0.00 | 0.23 | 0.23 | 98 | 1012.2 |
| 20260510021709 | 49 | 320 | 1.0 | 1.0 | 0.00 | 0.23 | 0.23 | 98 | 1012.2 |
| 20260510021207 | 49 | 331 | 0.0 | 1.0 | 0.00 | 0.23 | 0.23 | 98 | 1012.2 |
| 20260510020702 | 50 | 305 | 0.0 | 0.0 | 0.00 | 0.23 | 0.23 | 98 | 1012.2 |
| 20260510020157 | 50 | 132 | 1.0 | 2.0 | 0.00 | 0.23 | 0.23 | 98 | 1012.1 |
| 20260510015653 | 50 | 118 | 3.0 | 5.0 | 0.00 | 0.23 | 0.23 | 98 | 1011.9 |
| 20260510015150 | 50 | 138 | 3.0 | 3.0 | 0.00 | 0.23 | 0.23 | 98 | 1011.7 |
| 20260510014649 | 50 | 132 | 3.0 | 5.0 | 0.00 | 0.23 | 0.23 | 98 | 1011.7 |
| 20260510014147 | 50 | 141 | 3.0 | 7.0 | 0.00 | 0.23 | 0.23 | 98 | 1011.5 |
| 20260510013642 | 51 | 136 | 5.0 | 7.0 | 0.00 | 0.23 | 0.23 | 98 | 1011.6 |
| 20260510013138 | 51 | 118 | 5.0 | 7.0 | 0.00 | 0.23 | 0.23 | 98 | 1011.5 |
| 20260510012638 | 51 | 134 | 6.0 | 8.0 | 0.00 | 0.23 | 0.23 | 98 | 1011.9 |
| 20260510012134 | 51 | 133 | 5.0 | 7.0 | 0.00 | 0.23 | 0.23 | 98 | 1011.9 |
| 20260510011629 | 51 | 107 | 5.0 | 8.0 | 0.00 | 0.23 | 0.23 | 98 | 1012.0 |
| 20260510011125 | 51 | 126 | 5.0 | 8.0 | 0.00 | 0.23 | 0.23 | 98 | 1011.7 |
| 20260510010621 | 50 | 137 | 7.0 | 8.0 | 0.00 | 0.23 | 0.23 | 98 | 1011.6 |
| 20260510010119 | 50 | 116 | 6.0 | 7.0 | 0.00 | 0.23 | 0.23 | 98 | 1011.6 |
| 20260510005614 | 50 | 113 | 7.0 | 10.0 | 0.00 | 0.23 | 0.23 | 98 | 1011.6 |
| 20260510005112 | 50 | 119 | 5.0 | 8.0 | 0.00 | 0.23 | 0.23 | 98 | 1011.6 |
| 20260510004610 | 50 | 128 | 6.0 | 10.0 | 0.00 | 0.23 | 0.23 | 98 | 1011.4 |
| 20260510004107 | 50 | 156 | 7.0 | 8.0 | 0.00 | 0.23 | 0.23 | 98 | 1011.8 |
| 20260510003604 | 50 | 112 | 5.0 | 7.0 | 0.00 | 0.23 | 0.23 | 98 | 1011.7 |
| 20260510003100 | 50 | 129 | 3.0 | 6.0 | 0.00 | 0.23 | 0.23 | 98 | 1011.6 |
| 20260510002554 | 50 | 91 | 4.0 | 7.0 | 0.00 | 0.23 | 0.23 | 98 | 1011.4 |
| 20260510002051 | 50 | 73 | 2.0 | 3.0 | 0.00 | 0.23 | 0.23 | 98 | 1011.5 |
| 20260510001548 | 50 | 107 | 1.0 | 3.0 | 0.00 | 0.23 | 0.23 | 98 | 1011.4 |
| 20260510001047 | 50 | 97 | 4.0 | 5.0 | 0.00 | 0.23 | 0.23 | 98 | 1011.6 |
| 20260510000542 | 50 | 86 | 1.0 | 3.0 | 0.00 | 0.23 | 0.23 | 98 | 1011.3 |
| 20260510000039 | 51 | 127 | 2.0 | 3.0 | 0.00 | 0.23 | 0.23 | 98 | 1011.5 |
| 20260509235536 | 51 | 88 | 3.0 | 5.0 | 0.00 | 0.23 | 0.23 | 98 | 1011.3 |
| 20260509235033 | 51 | 83 | 2.0 | 5.0 | 0.00 | 0.23 | 0.23 | 98 | 1011.5 |
| 20260509234529 | 51 | 92 | 2.0 | 5.0 | 0.00 | 0.23 | 0.23 | 98 | 1011.5 |
| 20260509234027 | 51 | 69 | 3.0 | 3.0 | 0.00 | 0.23 | 0.23 | 98 | 1011.3 |
| 20260509233524 | 51 | 88 | 3.0 | 3.0 | 0.00 | 0.23 | 0.23 | 98 | 1011.3 |
| 20260509233021 | 51 | 58 | 1.0 | 3.0 | 0.00 | 0.23 | 0.23 | 98 | 1011.2 |
| 20260509232518 | 51 | 75 | 2.0 | 3.0 | 0.00 | 0.23 | 0.23 | 98 | 1011.0 |
| 20260509232015 | 51 | 91 | 2.0 | 5.0 | 0.00 | 0.23 | 0.23 | 98 | 1011.3 |
| 20260509231511 | 51 | 82 | 4.0 | 6.0 | 0.00 | 0.23 | 0.23 | 98 | 1011.0 |
| 20260509231009 | 51 | 99 | 3.0 | 5.0 | 0.00 | 0.23 | 0.23 | 98 | 1011.1 |
| 20260509230505 | 51 | 93 | 3.0 | 3.0 | 0.00 | 0.23 | 0.23 | 98 | 1011.0 |
| 20260509230003 | 51 | 85 | 3.0 | 6.0 | 0.00 | 0.23 | 0.23 | 98 | 1010.8 |
| 20260509225458 | 51 | 66 | 2.0 | 3.0 | 0.00 | 0.23 | 0.23 | 98 | 1011.0 |
| 20260509224954 | 51 | 120 | 3.0 | 6.0 | 0.00 | 0.23 | 0.23 | 98 | 1011.1 |
| 20260509224449 | 51 | 62 | 2.0 | 3.0 | 0.00 | 0.23 | 0.23 | 98 | 1011.0 |
| 20260509223946 | 51 | 72 | 2.0 | 5.0 | 0.00 | 0.23 | 0.23 | 98 | 1011.1 |
| 20260509223443 | 51 | 64 | 2.0 | 5.0 | 0.00 | 0.23 | 0.23 | 98 | 1011.0 |
| 20260509222941 | 51 | 66 | 3.0 | 6.0 | 0.00 | 0.23 | 0.23 | 98 | 1011.1 |
| 20260509222436 | 51 | 59 | 2.0 | 5.0 | 0.00 | 0.23 | 0.23 | 98 | 1010.9 |
| 20260509221932 | 52 | 39 | 2.0 | 5.0 | 0.00 | 0.23 | 0.23 | 98 | 1010.9 |
| 20260509221429 | 52 | 95 | 2.0 | 3.0 | 0.00 | 0.23 | 0.23 | 98 | 1011.0 |
| 20260509220924 | 52 | 70 | 2.0 | 3.0 | 0.00 | 0.23 | 0.23 | 98 | 1010.9 |
| 20260509220420 | 52 | 100 | 2.0 | 6.0 | 0.00 | 0.23 | 0.23 | 98 | 1011.1 |
| 20260509215917 | 52 | 137 | 6.0 | 7.0 | 0.00 | 0.23 | 0.23 | 98 | 1010.9 |
| 20260509215412 | 51 | 115 | 7.0 | 8.0 | 0.00 | 0.23 | 0.23 | 98 | 1010.9 |
| 20260509214910 | 51 | 121 | 3.0 | 5.0 | 0.00 | 0.23 | 0.23 | 98 | 1011.1 |
| 20260509214407 | 51 | 115 | 4.0 | 5.0 | 0.00 | 0.23 | 0.23 | 98 | 1011.4 |
| 20260509213904 | 51 | 77 | 2.0 | 5.0 | 0.00 | 0.23 | 0.23 | 98 | 1011.3 |
| 20260509213359 | 51 | 147 | 4.0 | 6.0 | 0.00 | 0.23 | 0.23 | 98 | 1011.3 |
| 20260509212857 | 51 | 67 | 2.0 | 7.0 | 0.00 | 0.23 | 0.23 | 98 | 1011.2 |
| 20260509212354 | 51 | 55 | 4.0 | 6.0 | 0.00 | 0.23 | 0.23 | 98 | 1011.3 |
| 20260509211850 | 51 | 105 | 3.0 | 3.0 | 0.00 | 0.23 | 0.23 | 98 | 1011.5 |
| 20260509211341 | 51 | 119 | 2.0 | 6.0 | 0.00 | 0.23 | 0.23 | 98 | 1011.3 |
| 20260509210837 | 51 | 114 | 3.0 | 5.0 | 0.00 | 0.23 | 0.23 | 98 | 1011.6 |
| 20260509210335 | 51 | 114 | 2.0 | 6.0 | 0.00 | 0.23 | 0.23 | 98 | 1011.6 |
| 20260509205834 | 51 | 111 | 7.0 | 8.0 | 0.00 | 0.23 | 0.23 | 98 | 1011.6 |
| 20260509205329 | 51 | 83 | 3.0 | 7.0 | 0.00 | 0.23 | 0.23 | 98 | 1011.5 |
| 20260509204826 | 51 | 102 | 6.0 | 7.0 | 0.00 | 0.23 | 0.23 | 98 | 1011.7 |
| 20260509204322 | 51 | 87 | 5.0 | 7.0 | 0.00 | 0.23 | 0.23 | 98 | 1011.7 |
| 20260509203819 | 51 | 94 | 5.0 | 7.0 | 0.00 | 0.23 | 0.23 | 98 | 1011.7 |
| 20260509203316 | 51 | 127 | 3.0 | 8.0 | 0.00 | 0.23 | 0.23 | 98 | 1011.6 |
| 20260509202812 | 51 | 134 | 5.0 | 7.0 | 0.00 | 0.23 | 0.23 | 98 | 1011.7 |
| 20260509202309 | 51 | 74 | 4.0 | 6.0 | 0.00 | 0.23 | 0.23 | 98 | 1011.8 |
| 20260509201808 | 50 | 113 | 1.0 | 7.0 | 0.00 | 0.23 | 0.23 | 98 | 1011.8 |
| 20260509201305 | 51 | 79 | 2.0 | 5.0 | 0.00 | 0.23 | 0.23 | 98 | 1011.8 |
| 20260509200801 | 51 | 89 | 3.0 | 5.0 | 0.00 | 0.23 | 0.23 | 98 | 1011.8 |
| 20260509200256 | 51 | 134 | 3.0 | 5.0 | 0.00 | 0.23 | 0.23 | 98 | 1011.8 |
| 20260509195752 | 50 | 36 | 2.0 | 3.0 | 0.00 | 0.23 | 0.23 | 98 | 1012.0 |
| 20260509195247 | 50 | 74 | 3.0 | 5.0 | 0.00 | 0.23 | 0.23 | 97 | 1012.0 |
| 20260509194742 | 50 | 110 | 2.0 | 3.0 | 0.00 | 0.23 | 0.23 | 97 | 1012.3 |
| 20260509194239 | 50 | 59 | 3.0 | 3.0 | 0.00 | 0.23 | 0.23 | 97 | 1012.1 |
| 20260509193736 | 50 | 58 | 1.0 | 5.0 | 0.07 | 0.23 | 0.23 | 97 | 1012.4 |
| 20260509193235 | 50 | 101 | 4.0 | 5.0 | 0.00 | 0.22 | 0.22 | 97 | 1012.3 |
| 20260509192732 | 50 | 89 | 3.0 | 5.0 | 0.00 | 0.22 | 0.22 | 97 | 1012.3 |
| 20260509192227 | 50 | 61 | 3.0 | 5.0 | 0.00 | 0.22 | 0.22 | 97 | 1012.6 |
| 20260509191723 | 50 | 67 | 3.0 | 5.0 | 0.00 | 0.22 | 0.22 | 97 | 1012.5 |
| 20260509191219 | 50 | 68 | 3.0 | 3.0 | 0.00 | 0.22 | 0.22 | 97 | 1012.5 |
| 20260509190715 | 50 | 50 | 2.0 | 7.0 | 0.00 | 0.22 | 0.22 | 97 | 1012.4 |
| 20260509190213 | 51 | 86 | 1.0 | 3.0 | 0.00 | 0.22 | 0.22 | 97 | 1012.3 |
| 20260509185710 | 50 | 110 | 4.0 | 6.0 | 0.00 | 0.22 | 0.22 | 97 | 1012.5 |
| 20260509185206 | 50 | 126 | 5.0 | 7.0 | 0.00 | 0.22 | 0.22 | 97 | 1012.5 |
| 20260509184704 | 51 | 53 | 1.0 | 7.0 | 0.00 | 0.22 | 0.22 | 97 | 1012.3 |
| 20260509184201 | 50 | 126 | 4.0 | 6.0 | 0.00 | 0.22 | 0.22 | 97 | 1012.4 |
| 20260509183657 | 50 | 132 | 7.0 | 8.0 | 0.00 | 0.22 | 0.22 | 97 | 1012.6 |
| 20260509183152 | 50 | 110 | 4.0 | 8.0 | 0.00 | 0.22 | 0.22 | 97 | 1012.5 |
| 20260509182648 | 50 | 112 | 3.0 | 7.0 | 0.00 | 0.22 | 0.22 | 97 | 1012.7 |
| 20260509182146 | 50 | 98 | 2.0 | 6.0 | 0.00 | 0.22 | 0.22 | 97 | 1012.5 |
| 20260509181643 | 50 | 114 | 4.0 | 9.0 | 0.00 | 0.22 | 0.22 | 97 | 1012.3 |
| 20260509181141 | 49 | 74 | 3.0 | 6.0 | 0.00 | 0.22 | 0.22 | 97 | 1012.6 |
| 20260509180637 | 49 | 107 | 6.0 | 7.0 | 0.00 | 0.22 | 0.22 | 97 | 1012.6 |
| 20260509180134 | 49 | 102 | 5.0 | 8.0 | 0.00 | 0.22 | 0.22 | 97 | 1012.6 |
| 20260509175629 | 49 | 133 | 4.0 | 8.0 | 0.00 | 0.22 | 0.22 | 97 | 1012.3 |
| 20260509175127 | 49 | 136 | 6.0 | 8.0 | 0.00 | 0.22 | 0.22 | 97 | 1012.6 |
| 20260509174622 | 49 | 101 | 4.0 | 7.0 | 0.00 | 0.22 | 0.22 | 97 | 1012.6 |
| 20260509174118 | 48 | 127 | 4.0 | 7.0 | 0.00 | 0.22 | 0.22 | 97 | 1012.5 |
| 20260509173614 | 49 | 111 | 4.0 | 5.0 | 0.00 | 0.22 | 0.22 | 97 | 1012.7 |
| 20260509173109 | 48 | 78 | 4.0 | 8.0 | 0.00 | 0.22 | 0.22 | 97 | 1012.7 |
| 20260509172607 | 48 | 59 | 6.0 | 8.0 | 0.00 | 0.22 | 0.22 | 97 | 1012.6 |
| 20260509172103 | 48 | 59 | 4.0 | 8.0 | 0.00 | 0.22 | 0.22 | 97 | 1012.7 |
| 20260509171558 | 48 | 95 | 6.0 | 7.0 | 0.00 | 0.22 | 0.22 | 97 | 1012.9 |
| 20260509171054 | 48 | 120 | 2.0 | 6.0 | 0.00 | 0.22 | 0.22 | 97 | 1012.8 |
| 20260509170551 | 48 | 85 | 4.0 | 7.0 | 0.05 | 0.22 | 0.22 | 97 | 1012.7 |
| 20260509170046 | 47 | 83 | 4.0 | 6.0 | 0.05 | 0.22 | 0.22 | 97 | 1013.0 |
| 20260509165545 | 47 | 60 | 1.0 | 5.0 | 0.00 | 0.21 | 0.21 | 97 | 1013.1 |
| 20260509165040 | 47 | 91 | 3.0 | 5.0 | 0.00 | 0.21 | 0.21 | 97 | 1013.1 |
| 20260509164537 | 47 | 97 | 3.0 | 5.0 | 0.07 | 0.21 | 0.21 | 97 | 1013.0 |
| 20260509164032 | 47 | 113 | 3.0 | 6.0 | 0.07 | 0.21 | 0.21 | 97 | 1013.2 |
| 20260509163531 | 47 | 90 | 5.0 | 6.0 | 0.00 | 0.20 | 0.20 | 97 | 1013.2 |
| 20260509163026 | 47 | 105 | 6.0 | 8.0 | 0.00 | 0.20 | 0.20 | 97 | 1013.3 |
| 20260509162524 | 47 | 48 | 4.0 | 7.0 | 0.00 | 0.20 | 0.20 | 97 | 1013.3 |
| 20260509162019 | 47 | 81 | 2.0 | 5.0 | 0.05 | 0.20 | 0.20 | 97 | 1013.6 |
| 20260509161516 | 47 | 79 | 2.0 | 2.0 | 0.00 | 0.19 | 0.19 | 97 | 1013.5 |
| 20260509161011 | 46 | 60 | 3.0 | 5.0 | 0.00 | 0.19 | 0.19 | 97 | 1013.7 |
| 20260509160507 | 46 | 110 | 5.0 | 8.0 | 0.00 | 0.19 | 0.19 | 97 | 1014.0 |
| 20260509160003 | 46 | 110 | 4.0 | 7.0 | 0.00 | 0.19 | 0.19 | 97 | 1013.7 |
| 20260509155459 | 46 | 100 | 8.0 | 9.0 | 0.00 | 0.19 | 0.19 | 97 | 1014.1 |
| 20260509154955 | 46 | 125 | 7.0 | 11.0 | 0.00 | 0.19 | 0.19 | 96 | 1014.1 |
| 20260509154451 | 46 | 104 | 6.0 | 10.0 | 0.07 | 0.19 | 0.19 | 97 | 1014.1 |
| 20260509153949 | 45 | 134 | 4.0 | 6.0 | 0.07 | 0.19 | 0.19 | 97 | 1014.2 |
| 20260509153446 | 45 | 88 | 4.0 | 10.0 | 0.00 | 0.18 | 0.18 | 97 | 1014.3 |
| 20260509152942 | 45 | 118 | 5.0 | 6.0 | 0.00 | 0.18 | 0.18 | 97 | 1014.3 |
| 20260509152438 | 45 | 113 | 3.0 | 6.0 | 0.05 | 0.18 | 0.18 | 97 | 1014.6 |
| 20260509151930 | 45 | 96 | 4.0 | 5.0 | 0.05 | 0.18 | 0.18 | 97 | 1014.5 |
| 20260509151426 | 44 | 129 | 4.0 | 7.0 | 0.00 | 0.17 | 0.17 | 96 | 1014.8 |
| 20260509150925 | 44 | 125 | 5.0 | 7.0 | 0.07 | 0.17 | 0.17 | 96 | 1014.7 |
| 20260509150421 | 44 | 45 | 2.0 | 6.0 | 0.07 | 0.17 | 0.17 | 96 | 1014.7 |
| 20260509145920 | 44 | 123 | 1.0 | 7.0 | 0.00 | 0.16 | 0.16 | 96 | 1014.7 |
| 20260509145420 | 44 | 71 | 5.0 | 6.0 | 0.05 | 0.16 | 0.16 | 96 | 1014.6 |
| 20260509144915 | 44 | 49 | 3.0 | 6.0 | 0.05 | 0.16 | 0.16 | 96 | 1014.6 |
| 20260509144412 | 44 | 143 | 3.0 | 3.0 | 0.07 | 0.15 | 0.15 | 96 | 1014.8 |
| 20260509143909 | 43 | 80 | 3.0 | 5.0 | 0.07 | 0.15 | 0.15 | 96 | 1015.0 |
| 20260509143407 | 43 | 86 | 1.0 | 5.0 | 0.05 | 0.14 | 0.14 | 96 | 1014.7 |
| 20260509142903 | 43 | 50 | 1.0 | 5.0 | 0.05 | 0.14 | 0.14 | 96 | 1014.7 |
| 20260509142400 | 43 | 77 | 1.0 | 3.0 | 0.07 | 0.13 | 0.13 | 96 | 1015.0 |
| 20260509141855 | 43 | 114 | 3.0 | 5.0 | 0.05 | 0.12 | 0.12 | 96 | 1014.8 |
| 20260509141352 | 43 | 95 | 0.0 | 2.0 | 0.12 | 0.12 | 0.12 | 96 | 1014.9 |
| 20260509140849 | 43 | 107 | 3.0 | 5.0 | 0.07 | 0.11 | 0.11 | 95 | 1014.8 |
| 20260509140346 | 43 | 111 | 5.0 | 6.0 | 0.07 | 0.10 | 0.10 | 95 | 1015.0 |
| 20260509135844 | 42 | 103 | 3.0 | 3.0 | 0.07 | 0.10 | 0.10 | 95 | 1014.9 |
| 20260509135341 | 42 | 95 | 4.0 | 5.0 | 0.00 | 0.09 | 0.09 | 95 | 1014.9 |
| 20260509134838 | 42 | 109 | 2.0 | 2.0 | 0.05 | 0.09 | 0.09 | 95 | 1015.0 |
| 20260509134335 | 42 | 97 | 3.0 | 3.0 | 0.07 | 0.08 | 0.08 | 95 | 1014.7 |
| 20260509133832 | 42 | 83 | 2.0 | 3.0 | 0.07 | 0.08 | 0.08 | 94 | 1014.6 |
| 20260509133329 | 42 | 25 | 2.0 | 3.0 | 0.05 | 0.07 | 0.07 | 94 | 1014.6 |
| 20260509132828 | 43 | 49 | 1.0 | 5.0 | 0.05 | 0.07 | 0.07 | 94 | 1014.8 |
| 20260509132326 | 43 | 96 | 5.0 | 7.0 | 0.07 | 0.06 | 0.06 | 94 | 1014.6 |
| 20260509131822 | 42 | 140 | 5.0 | 6.0 | 0.07 | 0.06 | 0.06 | 94 | 1014.8 |
| 20260509131319 | 42 | 92 | 1.0 | 2.0 | 0.00 | 0.05 | 0.05 | 94 | 1015.0 |
| 20260509130815 | 42 | 147 | 3.0 | 5.0 | 0.05 | 0.05 | 0.05 | 93 | 1014.9 |
| 20260509130311 | 42 | 108 | 3.0 | 5.0 | 0.00 | 0.04 | 0.04 | 93 | 1015.0 |
| 20260509125808 | 42 | 121 | 4.0 | 5.0 | 0.07 | 0.04 | 0.04 | 93 | 1015.1 |
| 20260509125307 | 42 | 34 | 2.0 | 3.0 | 0.07 | 0.04 | 0.04 | 93 | 1015.1 |
| 20260509124801 | 42 | 94 | 1.0 | 2.0 | 0.00 | 0.03 | 0.03 | 93 | 1015.1 |
| 20260509124257 | 42 | 125 | 5.0 | 5.0 | 0.00 | 0.03 | 0.03 | 93 | 1014.9 |
| 20260509123756 | 42 | 108 | 3.0 | 3.0 | 0.05 | 0.03 | 0.03 | 93 | 1015.2 |
| 20260509123253 | 42 | 134 | 3.0 | 5.0 | 0.05 | 0.03 | 0.03 | 92 | 1015.2 |
| 20260509122748 | 42 | 126 | 2.0 | 3.0 | 0.00 | 0.02 | 0.02 | 93 | 1015.1 |
| 20260509122246 | 42 | 126 | 1.0 | 3.0 | 0.00 | 0.02 | 0.02 | 93 | 1015.2 |
| 20260509121742 | 42 | 131 | 3.0 | 3.0 | 0.07 | 0.02 | 0.02 | 92 | 1015.3 |
| 20260509121239 | 41 | 140 | 3.0 | 3.0 | 0.07 | 0.02 | 0.02 | 92 | 1015.3 |
| 20260509120738 | 41 | 96 | 3.0 | 3.0 | 0.00 | 0.01 | 0.01 | 92 | 1015.4 |
| 20260509120235 | 41 | 131 | 2.0 | 3.0 | 0.05 | 0.01 | 0.01 | 92 | 1015.1 |
| 20260509115733 | 41 | 82 | 0.0 | 3.0 | 0.05 | 0.01 | 0.01 | 91 | 1015.4 |
| 20260509115230 | 41 | 78 | 1.0 | 2.0 | 0.00 | 0.00 | 0.00 | 91 | 1015.3 |
| 20260509114728 | 41 | 109 | 3.0 | 3.0 | 0.00 | 0.00 | 0.00 | 91 | 1015.5 |
| 20260509114226 | 41 | 132 | 2.0 | 2.0 | 0.00 | 0.00 | 0.00 | 91 | 1015.3 |
| 20260509113725 | 41 | 63 | 2.0 | 5.0 | 0.00 | 0.00 | 0.00 | 91 | 1015.3 |
| 20260509113222 | 41 | 78 | 1.0 | 2.0 | 0.00 | 0.00 | 0.00 | 91 | 1015.2 |